Terug naar catalogus

FENGYUN 1C DEB

ActiefPO
NORAD 31888·DEBRIS·🇨🇳 China

Gelanceerd May 10, 1999 vanaf Taiyuan Satellite Launch Center

Loading…

Volgende Passages (komende 24 uur)

TLE

VersSource: Space-Track

Epoch: Sep 13, 2026, 02:19 UTC

1 31888U 99025CKP 26256.09707266  .00003250  00000-0  11207-2 0  9994
2 31888  99.1623 204.2340 0018583 129.6850 230.5976 14.36545939995735

Volg FENGYUN 1C DEB in realtime met AllMySat

Download on the App Store